This demonstration page uses our WeatherBlox Daily Observations layout. Learn more.

Left ArrowRight Arrow

47.50024, -111.30081

Hourly Observations for April 1, 2020

Temp ( °F °C ) Dew Point ( °F °C ) Humidity (%) Winds ( mph kmh ) Pressure ( in mb ) Visibility ( mi km ) Precip ( " mm )
12:01 am 00:01 Mostly Cloudy with Snow 16 -8.9 12 -11.1 84 84 NNW 14 22 30.23 1024 1 1 0.01 0.25
12:02 am 00:02 Mostly Cloudy with Snow 16 -8.9 12 -11.1 84 84 NNW 15 24 30.23 1024 1 1 0.01 0.25
12:53 am 00:53 Mostly Cloudy with Light Snow 15 -9.4 11 -11.7 84 84 NNW 13 20 30.11 1020 1 1 0.07 1.78
1:12 am 01:12 Mostly Cloudy with Light Snow 15 -9.4 11 -11.7 84 84 NNW 12 19 30.26 1025 1 1 0.01 0.25
1:38 am 01:38 Mostly Cloudy with Light Snow 15 -9.4 11 -11.7 84 84 NNW 14 22 30.26 1025 1 1 0.02 0.51
1:53 am 01:53 Mostly Cloudy with Light Snow 15 -9.4 10 -12.2 80 80 NNW 15 24 30.14 1021 1 1 0.03 0.76
2:07 am 02:07 Cloudy with Light Snow 14 -10 10 -12.2 84 84 NNW 15 24 30.28 1025 1 1 0.00 0.00
2:41 am 02:41 Cloudy with Light Snow 14 -10 9 -12.8 80 80 NNW 12 19 30.28 1025 2 2 0.01 0.25
2:45 am 02:45 Cloudy with Light Snow 14 -10 9 -12.8 80 80 NNW 12 19 30.29 1026 3 4 0.01 0.25
2:53 am 02:53 Cloudy with Light Snow 14 -10 10 -12.2 84 84 NNW 12 19 30.16 1021 4 6 0.01 0.25
3:38 am 03:38 Cloudy with Light Snow 13 -10.6 8 -13.3 81 81 NNW 13 20 30.30 1026 4 6 0.00 0.00
3:53 am 03:53 Cloudy with Light Snow 13 -10.6 8 -13.3 81 81 NNW 12 19 30.19 1022 4 6 0.00 0.00
4:31 am 04:31 Cloudy with Light Snow 12 -11.1 7 -13.9 80 80 N 13 20 30.32 1027 2 3 0.00 0.00
4:53 am 04:53 Cloudy with Light Snow 12 -11.1 7 -13.9 80 80 NNW 13 20 30.23 1024 2 3 0.00 0.00
5:23 am 05:23 Cloudy with Light Snow 11 -11.7 6 -14.4 81 81 N 10 17 30.35 1028 2 3 0.00 0.00
5:48 am 05:48 Cloudy with Light Snow 10 -12 5 -15 79 79 NNW 10 17 30.36 1028 2 3 0.00 0.00
5:53 am 05:53 Cloudy with Light Snow 10 -12.2 5 -15 80 80 N 13 20 30.25 1024 2 3 0.00 0.00
6:01 am 06:01 Cloudy with Light Snow 10 -12.2 5 -15 80 80 N 13 20 30.36 1028 2 3 0.00 0.00
6:26 am 06:26 Cloudy with Light Snow 10 -12.2 5 -15 80 80 N 12 19 30.36 1028 2 3 0.00 0.00
6:40 am 06:40 Cloudy with Light Snow 10 -12.2 5 -15 80 80 NNW 14 22 30.37 1029 1 2 0.00 0.00
6:53 am 06:53 Cloudy with Light Snow 9 -12.8 4 -15.6 80 80 N 10 17 30.28 1025 1 2 0.00 0.00
7:16 am 07:16 Cloudy with Light Snow 9 -12.8 4 -15.6 80 80 N 9 15 30.39 1029 2 3 0.00 0.00
7:31 am 07:31 Cloudy with Light Snow 8 -13.3 3 -16.1 80 80 N 10 17 30.40 1030 3 5 0.01 0.25
7:53 am 07:53 Cloudy with Light Snow 9 -12.8 4 -15.6 80 80 NNW 8 13 30.30 1026 3 4 0.01 0.25
8:19 am 08:19 Cloudy with Haze 9 -12.8 3 -16.1 77 77 NNW 9 15 30.40 1030 3 5 0.00 0.00
8:53 am 08:53 Cloudy with Light Snow 9 -12.8 3 -16.1 77 77 NNW 8 13 30.31 1027 3 4 0.00 0.00
9:02 am 09:02 Cloudy with Light Snow 9 -12.8 3 -16.1 77 77 NNW 8 13 30.41 1030 5 8 0.00 0.00
9:22 am 09:22 Cloudy with Light Snow 9 -12.8 3 -16.1 77 77 N 8 13 30.41 1030 2 3 0.00 0.00
9:42 am 09:42 Cloudy with Light Snow 11 -11.7 4 -15.6 73 73 N 7 11 30.41 1030 2 2 0.00 0.00
9:53 am 09:53 Cloudy with Light Snow 11 -11.7 4 -15.6 73 73 NNE 9 15 30.32 1027 2 2 0.00 0.00
10:18 am 10:18 Cloudy with Light Snow 11 -11.7 4 -15.6 73 73 NNE 8 13 30.41 1030 1 2 0.00 0.00
10:37 am 10:37 Cloudy with Light Snow 11 -11.7 4 -15.6 73 73 NNE 10 17 30.41 1030 1 1 0.00 0.00
10:44 am 10:44 Cloudy with Snow 11 -11.7 4 -15.6 73 73 NNE 10 17 30.42 1030 1 1 0.00 0.00
10:53 am 10:53 Mostly Cloudy with Light Snow 11 -11.7 4 -15.6 73 73 NNE 14 22 30.33 1027 1 1 0.00 0.00
11:02 am 11:02 Cloudy with Light Snow 11 -11.7 3 -16.1 70 70 NNE 12 19 30.42 1030 1 2 0.01 0.25
11:53 am 11:53 Cloudy with Light Snow 11 -11.7 3 -16.1 70 70 NNE 13 20 30.34 1027 1 2 0.01 0.25
12:04 pm 12:04 Cloudy with Light Snow 12 -11.1 3 -16.1 67 67 NNE 13 20 30.41 1030 3 4 0.00 0.00
12:14 pm 12:14 Cloudy with Light Snow 12 -11.1 3 -16.1 67 67 NE 12 19 30.41 1030 4 6 0.00 0.00
12:34 pm 12:34 Cloudy with Light Snow 13 -10.6 4 -15.6 67 67 ENE 9 15 30.40 1029 2 3 0.00 0.00
12:45 pm 12:45 Cloudy with Light Snow 12 -11.1 3 -16.1 67 67 NE 12 19 30.41 1030 2 2 0.00 0.00
12:53 pm 12:53 Cloudy with Light Snow 12 -11.1 3 -16.1 67 67 NE 12 19 30.34 1027 3 5 0.00 0.00
1:53 pm 13:53 Cloudy 12 -11.1 1 -17.2 61 61 ENE 10 17 30.32 1027 10 16 0.00 0.00
2:21 pm 14:21 Cloudy 12 -11.1 2 -16.7 64 64 E 8 13 30.39 1029 10 16 0.00 0.00
2:53 pm 14:53 Cloudy 13 -10.6 2 -16.7 61 61 ENE 9 15 30.32 1027 10 16 0.00 0.00
3:26 pm 15:26 Cloudy 13 -10.6 2 -16.7 61 61 E 6 9 30.38 1029 10 16 0.00 0.00
3:53 pm 15:53 Cloudy 12 -11.1 5 -15 73 73 SE 8 13 30.32 1027 10 16 0.00 0.00
4:53 pm 16:53 Cloudy 12 -11.1 4 -15.6 70 70 ESE 8 13 30.33 1027 10 16 0.00 0.00
5:53 pm 17:53 Cloudy 11 -11.7 3 -16.1 70 70 ESE 8 13 30.34 1027 10 16 0.00 0.00
6:27 pm 18:27 Cloudy 11 -11.7 3 -16.1 70 70 E 8 13 30.41 1030 10 16 0.00 0.00
6:53 pm 18:53 Mostly Cloudy 11 -11.7 2 -16.7 67 67 ESE 9 15 30.35 1028 10 16 0.00 0.00
7:53 pm 19:53 Mostly Cloudy 9 -12.8 1 -17.2 70 70 E 10 17 30.37 1028 10 16 0.00 0.00
8:53 pm 20:53 Cloudy 9 -12.8 2 -16.7 73 73 E 8 13 30.38 1029 10 16 0.00 0.00
9:53 pm 21:53 Cloudy 9 -12.8 1 -17.2 70 70 E 10 17 30.40 1029 10 16 0.00 0.00
10:53 pm 22:53 Cloudy 7 -13.9 1 -17.2 76 76 ENE 12 19 30.41 1030 10 16 0.00 0.00
11:53 pm 23:53 Cloudy 8 -13.3 0 -17.8 69 69 ENE 14 22 30.40 1030 10 16 0.00 0.00

Powered by AerisWeather